Starlink 32369

operational
NORAD ID: 60917 Int'l Des: 2024-154 Owner: SPXS Country: US Constellation: starlink
LEOCIRCULAR

Über Starlink 32369

Beschreibung wird geladen...

Live-Position

3D-Globus wird geladen...

Nächste Überflüge

Höhenverlauf

Altitude vs Time

uPlot chart will show altitude changes over time

Zweizeiliger Elementsatz

1 60917U 24154Q 25351.30044556 .00001471 00000-0 61783-4 0 9994
2 60917 53.1614 306.3330 0000998 107.7325 252.3785 15.30189142 73729
Epoch: 17. Dez. 2025 • Age: 26 hours

Aktueller Status

Höhe 486.0 km
Geschwindigkeit 7.62 km/s
Subsatellitenpunkt -33.53°S, 75.33°W
Startdatum 31. Aug. 2024
Alter 1.2 years
Typ internet

Technische Details

Klassifizierung Payload
Masse 730.00 kg
Trockenmasse 700.00 kg
Gesamtmasse 730.00 kg
Länge 0.30 m
Durchmesser 4.10 m
Spannweite 29.00 m
Form Box + pan
Hersteller SPXS
Bus-Typ Starlink V2M
Phasenstatus In Orbit
Besitzer/Staat SPXS/US

Große Konstellationen

Loading constellations...